TimeMDT,TemperatureF,Dew PointF,Humidity,Sea Level PressureIn,VisibilityMPH,Wind Direction,Wind SpeedMPH,Gust SpeedMPH,PrecipitationIn,Events,Conditions,WindDirDegrees,DateUTC
12:53 AM,52.0,30.0,43,29.85,10.0,West,6.9,-,N/A,,Clear,260,2012-10-23 06:53:00
1:53 AM,51.1,30.9,46,29.84,10.0,West,3.5,-,N/A,,Clear,280,2012-10-23 07:53:00
2:53 AM,50.0,30.0,46,29.84,10.0,West,4.6,-,N/A,,Clear,280,2012-10-23 08:53:00
3:53 AM,48.9,30.0,48,29.83,10.0,WNW,5.8,-,N/A,,Clear,290,2012-10-23 09:53:00
4:53 AM,45.0,28.9,53,29.84,10.0,WSW,5.8,-,N/A,,Clear,240,2012-10-23 10:53:00
5:53 AM,45.0,28.9,53,29.87,10.0,West,3.5,-,N/A,,Clear,270,2012-10-23 11:53:00
6:53 AM,44.1,28.0,53,29.90,10.0,West,3.5,-,N/A,,Clear,260,2012-10-23 12:53:00
7:53 AM,46.0,28.9,51,29.92,10.0,SW,3.5,-,N/A,,Clear,220,2012-10-23 13:53:00
9:53 AM,63.0,34.0,34,29.92,10.0,SW,5.8,-,N/A,,Clear,220,2012-10-23 15:53:00
10:53 AM,70.0,35.1,28,29.90,-9999.0,West,4.6,-,N/A,,Clear,270,2012-10-23 16:53:00
11:53 AM,75.0,35.1,23,29.87,10.0,SSW,6.9,-,N/A,,Clear,210,2012-10-23 17:53:00
12:53 PM,78.1,33.1,19,29.85,10.0,SW,12.7,20.7,N/A,,Clear,230,2012-10-23 18:53:00
1:53 PM,80.1,34.0,19,29.81,10.0,WSW,11.5,-,N/A,,Clear,250,2012-10-23 19:53:00
2:53 PM,82.0,35.1,18,29.78,10.0,Variable,5.8,-,N/A,,Clear,0,2012-10-23 20:53:00
3:53 PM,84.0,30.9,15,29.77,10.0,SSW,10.4,-,N/A,,Clear,210,2012-10-23 21:53:00
4:53 PM,82.0,32.0,16,29.78,10.0,Calm,Calm,-,N/A,,Clear,0,2012-10-23 22:53:00
5:53 PM,81.0,23.0,12,29.77,10.0,WSW,11.5,17.3,N/A,,Clear,250,2012-10-23 23:53:00
6:53 PM,73.9,28.0,18,29.80,10.0,WNW,3.5,-,N/A,,Clear,300,2012-10-24 00:53:00
7:53 PM,68.0,28.0,22,29.83,10.0,WSW,5.8,-,N/A,,Clear,250,2012-10-24 01:53:00
8:53 PM,64.9,30.9,28,29.83,10.0,WNW,6.9,-,N/A,,Clear,290,2012-10-24 02:53:00
9:53 PM,63.0,28.9,28,29.82,10.0,SW,5.8,-,N/A,,Clear,220,2012-10-24 03:53:00
10:53 PM,60.1,28.9,31,29.81,10.0,WSW,5.8,-,N/A,,Clear,240,2012-10-24 04:53:00
11:53 PM,55.0,28.9,37,29.81,10.0,West,5.8,-,N/A,,Clear,280,2012-10-24 05:53:00